Weather History for Three Rivers, MI

Change the Weather History Date:

Friday, June 28, 2013

  Actual Average Record
Temperature  
Mean Temperature 70 °F -  
Max Temperature 77 °F 82 °F 101 °F (1971)
Min Temperature 62 °F 59 °F 41 °F (1992)
Cooling Degree Days 4    
Growing Degree Days 20 (Base 50)    
Moisture  
Dew Point 62 °F    
Average Humidity 76    
Maximum Humidity 95    
Minimum Humidity 56    
Precipitation  
Precipitation 0.00 in - - ()
Sea Level Pressure  
Sea Level Pressure 29.63 in    
Wind  
Wind Speed 5 mph (WNW)    
Max Wind Speed 18 mph    
Max Gust Speed 23 mph    
Visibility 9 miles    
Events      
Averages and records for this station are not official NWS values.
T = Trace of Precipitation, MM = Missing Value Source: NWS Daily Summary

Daily Weather History Graph

Daily Weather History Graph

Search for Another Location

Airport:

Trip Planner

Search our weather history database for the weather conditions in past years. The results will help you decide how hot, cold, wet, or windy it might be!

Date:

Astronomy

Jun. 28, 2013 Rise Set
Actual Time 6:09 AM EDT 9:21 PM EDT
Civil Twilight 5:35 AM EDT 9:56 PM EDT
Nautical Twilight 4:50 AM EDT 10:40 PM EDT
Astronomical Twilight 3:57 AM EDT 11:33 PM EDT
Moon 12:12 AM EDT (6/28) 12:22 PM EDT (6/28)
Length of Visible Light 16h 21m
Length of Day
15h 12m
Waning Gibbous, 66% of the Moon is Illuminated
Jun 28
Waning Gibbous
Jun 30
Last Quarter
Jul 8
New
Jul 15
First Quarter
Jul 22
Full

Hourly Weather History & Observations

Time (EDT) Temp. Dew Point Humidity Pressure Visibility Wind Dir Wind Speed Gust Speed Precip Events Conditions
12:15 AM 70.0 °F 67.1 °F 91% 29.69 in 10.0 mi Calm Calm - N/A   Clear
12:34 AM 69.8 °F 66.6 °F 89% 29.69 in 10.0 mi WNW 4.6 mph - N/A   Clear
12:55 AM 69.8 °F 66.9 °F 91% 29.68 in 10.0 mi West 4.6 mph - N/A   Scattered Clouds
1:14 AM 68.4 °F 65.7 °F 91% 29.68 in 7.0 mi West 3.5 mph - N/A   Clear
1:35 AM 68.0 °F 65.3 °F 91% 29.68 in 10.0 mi Calm Calm - N/A   Clear
1:55 AM 68.0 °F 64.8 °F 89% 29.67 in 10.0 mi Calm Calm - N/A   Clear
2:34 AM 66.9 °F 63.5 °F 89% 29.67 in 10.0 mi Calm Calm - N/A   Clear
2:55 AM 66.2 °F 62.8 °F 89% 29.67 in 10.0 mi Calm Calm - N/A   Clear
3:14 AM 65.3 °F 62.6 °F 91% 29.67 in 10.0 mi Calm Calm - N/A   Clear
3:35 AM 64.9 °F 62.2 °F 91% 29.67 in 10.0 mi Calm Calm - N/A   Clear
3:55 AM 65.3 °F 63.0 °F 92% 29.66 in 10.0 mi Calm Calm - N/A   Clear
4:14 AM 64.9 °F 62.4 °F 92% 29.66 in 10.0 mi Calm Calm - N/A   Clear
4:35 AM 63.9 °F 61.9 °F 93% 29.66 in 7.0 mi Calm Calm - N/A   Clear
4:55 AM 62.6 °F 60.8 °F 94% 29.65 in 7.0 mi Calm Calm - N/A   Clear
5:14 AM 63.0 °F 61.3 °F 94% 29.65 in 7.0 mi Calm Calm - N/A   Clear
5:35 AM 63.5 °F 62.1 °F 95% 29.65 in 7.0 mi Calm Calm - N/A   Clear
5:55 AM 63.1 °F 61.7 °F 95% 29.66 in 5.0 mi Calm Calm - N/A   Scattered Clouds
6:14 AM 62.6 °F 61.0 °F 94% 29.66 in 7.0 mi Calm Calm - N/A   Scattered Clouds
6:35 AM 64.4 °F 63.0 °F 95% 29.65 in 5.0 mi WNW 4.6 mph - N/A   Overcast
6:54 AM 64.9 °F 63.5 °F 95% 29.65 in 3.0 mi NW 4.6 mph - N/A   Overcast
7:14 AM 65.3 °F 63.7 °F 94% 29.66 in 3.0 mi NW 4.6 mph - N/A   Overcast
7:35 AM 65.5 °F 63.7 °F 94% 29.66 in 3.0 mi NW 4.6 mph - N/A   Overcast
7:54 AM 66.0 °F 64.2 °F 94% 29.65 in 4.0 mi NW 5.8 mph - N/A   Overcast
8:15 AM 67.5 °F 64.8 °F 91% 29.65 in 5.0 mi West 6.9 mph - N/A   Scattered Clouds
8:35 AM 68.4 °F 64.6 °F 88% 29.66 in 7.0 mi West 8.1 mph - N/A   Clear
8:54 AM 69.8 °F 64.8 °F 84% 29.66 in 10.0 mi West 6.9 mph - N/A   Clear
9:15 AM 70.7 °F 63.9 °F 79% 29.66 in 10.0 mi NW 11.5 mph - N/A   Clear
9:35 AM 71.2 °F 63.3 °F 76% 29.66 in 10.0 mi WNW 9.2 mph - N/A   Clear
9:54 AM 72.3 °F 64.6 °F 77% 29.65 in 10.0 mi West 8.1 mph - N/A   Clear
10:15 AM 73.4 °F 64.0 °F 72% 29.65 in 10.0 mi WNW 9.2 mph - N/A   Clear
10:35 AM 73.4 °F 63.1 °F 70% 29.65 in 10.0 mi NW 9.2 mph 16.1 mph N/A   Clear
10:54 AM 74.3 °F 64.4 °F 71% 29.65 in 10.0 mi WNW 9.2 mph - N/A   Clear
11:15 AM 74.8 °F 64.0 °F 69% 29.65 in 10.0 mi West 10.4 mph - N/A   Clear
11:35 AM 75.6 °F 63.7 °F 66% 29.65 in 10.0 mi WNW 8.1 mph - N/A   Scattered Clouds
11:54 AM 76.1 °F 63.9 °F 66% 29.64 in 10.0 mi West 10.4 mph - N/A   Scattered Clouds
12:15 PM 77.0 °F 63.9 °F 64% 29.64 in 10.0 mi WNW 8.1 mph - N/A   Scattered Clouds
12:34 PM 77.0 °F 63.7 °F 63% 29.64 in 10.0 mi West 10.4 mph - N/A   Scattered Clouds
12:55 PM 76.5 °F 64.4 °F 66% 29.63 in 10.0 mi West 11.5 mph - N/A   Clear
1:15 PM 77.2 °F 64.6 °F 65% 29.63 in 10.0 mi WNW 12.7 mph 18.4 mph N/A   Scattered Clouds
1:34 PM 76.6 °F 63.7 °F 64% 29.63 in 10.0 mi West 12.7 mph 17.3 mph N/A   Scattered Clouds
1:55 PM 77.5 °F 63.9 °F 63% 29.62 in 10.0 mi West 12.7 mph 17.3 mph N/A   Clear
2:15 PM 77.7 °F 64.9 °F 65% 29.62 in 7.0 mi West 13.8 mph 19.6 mph N/A   Scattered Clouds
2:34 PM 77.4 °F 64.2 °F 64% 29.61 in 10.0 mi West 13.8 mph 18.4 mph N/A   Scattered Clouds
2:55 PM 77.2 °F 64.4 °F 65% 29.61 in 10.0 mi West 15.0 mph 20.7 mph N/A   Clear
3:14 PM 76.3 °F 63.3 °F 64% 29.61 in 10.0 mi West 18.4 mph 23.0 mph N/A   Scattered Clouds
3:35 PM 76.3 °F 64.8 °F 67% 29.60 in 10.0 mi WNW 15.0 mph 21.9 mph N/A   Scattered Clouds
3:54 PM 75.9 °F 63.3 °F 65% 29.60 in 10.0 mi WNW 13.8 mph 23.0 mph N/A   Scattered Clouds
4:15 PM 75.2 °F 61.5 °F 62% 29.60 in 10.0 mi WNW 15.0 mph 21.9 mph N/A   Scattered Clouds
4:35 PM 74.8 °F 60.8 °F 62% 29.60 in 10.0 mi NW 15.0 mph - N/A   Clear
4:54 PM 75.7 °F 60.6 °F 59% 29.60 in 10.0 mi WNW 15.0 mph 19.6 mph N/A   Clear
5:15 PM 75.6 °F 60.6 °F 60% 29.59 in 10.0 mi WNW 13.8 mph 21.9 mph N/A   Clear
5:35 PM 75.7 °F 59.7 °F 57% 29.59 in 10.0 mi NW 11.5 mph - N/A   Clear
5:54 PM 75.4 °F 58.8 °F 56% 29.59 in 10.0 mi WNW 15.0 mph 23.0 mph N/A   Clear
6:15 PM 75.0 °F 58.5 °F 56% 29.60 in 10.0 mi NW 13.8 mph 21.9 mph N/A   Clear
6:35 PM 75.6 °F 59.2 °F 57% 29.61 in 10.0 mi WNW 13.8 mph 19.6 mph N/A   Scattered Clouds
6:54 PM 75.2 °F 58.6 °F 56% 29.61 in 10.0 mi NW 11.5 mph 20.7 mph N/A   Scattered Clouds
7:15 PM 75.4 °F 59.0 °F 57% 29.60 in 10.0 mi NW 9.2 mph - N/A   Scattered Clouds
7:35 PM 74.3 °F 58.6 °F 58% 29.60 in 10.0 mi NNW 10.4 mph - N/A   Scattered Clouds
7:54 PM 74.1 °F 59.5 °F 60% 29.61 in 10.0 mi NW 5.8 mph - N/A   Clear
8:15 PM 73.6 °F 58.8 °F 60% 29.61 in 10.0 mi NW 6.9 mph - N/A   Clear
8:35 PM 72.9 °F 59.5 °F 63% 29.61 in 10.0 mi NW 5.8 mph - N/A   Clear
8:54 PM 72.0 °F 60.3 °F 67% 29.61 in 10.0 mi NW 3.5 mph - N/A   Clear
9:15 PM 70.9 °F 59.9 °F 68% 29.61 in 10.0 mi Calm Calm - N/A   Clear
9:35 PM 68.2 °F 60.3 °F 76% 29.61 in 10.0 mi Calm Calm - N/A   Clear
9:54 PM 67.5 °F 60.3 °F 78% 29.60 in 10.0 mi Calm Calm - N/A   Clear
10:15 PM 67.1 °F 60.6 °F 80% 29.61 in 10.0 mi Calm Calm - N/A   Clear
10:35 PM 65.8 °F 60.8 °F 84% 29.61 in 10.0 mi West 3.5 mph - N/A   Clear
10:54 PM 65.3 °F 60.8 °F 85% 29.61 in 10.0 mi Calm Calm - N/A   Clear
11:15 PM 64.8 °F 60.3 °F 85% 29.61 in 10.0 mi Calm Calm - N/A   Clear
11:35 PM 65.3 °F 60.8 °F 85% 29.60 in 10.0 mi Calm Calm - N/A   Clear
11:54 PM 64.8 °F 60.3 °F 85% 29.61 in 10.0 mi Calm Calm - N/A   Clear